Tracking 29018 objects as of 14-Jun-2024
HD Live streaming from Space Station
objects crossing your sky now

STARLINK-31465

Track STARLINK-31465 now!
10-day predictions
STARLINK-31465 is classified as:


NORAD ID: 59012
Int'l Code: 2024-036Q
Perigee: 487.9 km
Apogee: 489.9 km
Inclination: 53.2 °
Period: 94.2 minutes
Semi major axis: 6859 km
RCS: Unknown
Launch date: February 23, 2024
Source: United States (US)
Launch site: AIR FORCE WESTERN TEST RANGE (AFWTR)
Your satellite tracking list
Your tracking list is empty




NASA's NSSDC Master Catalog

Two Line Element Set (TLE):
1 59012U 24036Q   24165.66187096  .00003210  00000-0  12857-3 0  9995
2 59012  53.1599 142.9154 0001454  92.7033 267.4134 15.28000778 18256
Source of the keplerian elements: AFSPC